940  
ASUS44 KCRP 191311  
HRRCRP  
 
SOUTH TEXAS REGIONAL WEATHER ROUNDUP  
NATIONAL WEATHER SERVICE CORPUS CHRISTI TX  
800 AM CDT WED JUN 19 2019  
 
TXZ229>244-191400-   
..CORPUS CHRISTI AREA OBSERVATIONS
 
 
 
CITY SKY/WX TMP DP RH WIND PRES REMARKS  
CORPUS CHRISTI MOSUNNY 81 78 91 S6 29.85S  
NAS CORPUS CHR MOSUNNY 82 79 90 S9 29.85S HX 92  
ROCKPORT SUNNY 82 77 84 S5 29.85S HX 90  
KINGSVILLE NAS MOSUNNY 80 78 94 SE8 29.85R  
ALICE CLOUDY 79 77 94 S12 29.85R  

 
   
..VICTORIA AREA OBSERVATIONS
 
 
 
CITY SKY/WX TMP DP RH WIND PRES REMARKS  
PORT LAVACA SUNNY 83 80 91 S5 29.86S HX 94  
VICTORIA SUNNY 80 78 94 S8 29.87R  
BEEVILLE PTSUNNY 82 76 83 S9 29.85F  
PLEASANTON MOSUNNY 77 74 91 SE5 29.86R  
SAN ANTONIO MOSUNNY 78 74 87 S8 29.87S  

 
   
..LAREDO AREA OBSERVATIONS
 
 
 
CITY SKY/WX TMP DP RH WIND PRES REMARKS  
LAREDO SUNNY 82 74 76 SE15 29.82S  
COTULLA SUNNY 81 74 79 SE10 29.83S  
DEL RIO SUNNY 81 74 79 SE6 29.85R  
MCALLEN PTSUNNY 81 77 88 S10 29.86S  
HEBBRONVILLE CLOUDY 75 74 96 CALM 29.87R  

 
   
..OTHER TEXAS OBSERVATIONS
 
 
 
CITY SKY/WX TMP DP RH WIND PRES REMARKS  
BROWNSVILLE FAIR 82 81 96 S10 29.86S HX 95  
HOUSTON MOSUNNY 81 79 94 SW6 29.87R HX 90  
COL. STATION MOSUNNY 80 76 87 SW6 29.87R  
AUSTIN MOSUNNY 81 76 84 S12 29.84F  
TEMPLE MOSUNNY 78 32 18 S6 29.86F  
WACO CLOUDY 79 73 82 S10 29.84F  
FORT WORTH PTSUNNY 74 69 85 CALM 29.81S  
WICHITA FALLS SUNNY 68 65 90 S6 29.82F  
LUBBOCK MOSUNNY 68 61 78 S8 29.91F  
EL PASO PTSUNNY 73 30 20 E6 30.01R  

 
   
..MARINE OBSERVATIONS
 
 
 
STATION/POSITION TIME SKY/WX TEMP WIND PRES VSBY WAVE SWELL  
AIR SEA DIR/SP/G HT/PER HT/PER  
(UTC) (F) (DEG/KT/KT) (MB) (MI) (FT/S) (FT/S)  
PORT ARANSAS 1200 82 84 180/ 16/ 18 1010.5S  
BUOY 90 E PORT A 1240 84 N/A 3/ 7  
BUOY 45 SE BAFFI 1240 84 84 180/ 14/ 17 1011.2R  
BUOY 200 E PT IS 1250 84 84 170/ 8/ 10 1012.5R 3/ 7 3/ 7  
BUOY 15 E GALVES 1240 84 84 230/ 14/ 16 1012.6R  

 
 
 
CLICK HERE TO GO TO PREVIOUS BULLETINS.

The Nexlab TX Page Main Text Page